Time,TemperatureF,DewpointF,PressureIn,WindDirection,WindDirectionDegrees,WindSpeedMPH,WindSpeedGustMPH,Humidity,HourlyPrecipIn,Conditions,Clouds,dailyrainin,SoftwareType,DateUTC
2013-07-02 00:02:00,68.9,54.0,30.08,NNE,13,0.0,1.0,59,0.00,,FEW100,0.00,VWS V14.01,2013-07-02 05:02:00,
2013-07-02 00:07:00,68.8,53.9,30.08,NNE,13,0.0,1.0,59,0.00,,FEW100,0.00,VWS V14.01,2013-07-02 05:07:00,
2013-07-02 00:12:00,68.5,53.6,30.08,NNE,13,0.0,1.0,59,0.00,,FEW100,0.00,VWS V14.01,2013-07-02 05:12:00,
2013-07-02 00:17:00,68.4,54.0,30.08,NE,48,0.0,1.0,60,0.00,,FEW100,0.00,VWS V14.01,2013-07-02 05:17:00,
2013-07-02 00:22:00,68.2,53.8,30.08,NE,48,0.0,1.0,60,0.00,,FEW100,0.00,VWS V14.01,2013-07-02 05:22:00,
2013-07-02 00:27:00,68.0,54.1,30.08,NE,48,0.0,1.0,61,0.00,,FEW100,0.00,VWS V14.01,2013-07-02 05:27:00,
2013-07-02 00:32:00,67.7,53.8,30.08,NE,48,0.0,1.0,61,0.00,,FEW100,0.00,VWS V14.01,2013-07-02 05:32:00,
2013-07-02 00:37:00,67.5,54.0,30.08,NE,48,0.0,1.0,62,0.00,,FEW100,0.00,VWS V14.01,2013-07-02 05:37:00,
2013-07-02 00:42:00,67.3,53.8,30.08,SE,135,0.0,2.0,62,0.00,,CLR,0.00,VWS V14.01,2013-07-02 05:42:00,
2013-07-02 00:47:00,67.2,53.8,30.08,SE,131,0.0,1.0,62,0.00,,CLR,0.00,VWS V14.01,2013-07-02 05:47:00,
2013-07-02 00:52:00,67.1,53.7,30.08,East,95,0.0,0.0,62,0.00,,CLR,0.00,VWS V14.01,2013-07-02 05:52:00,
2013-07-02 00:57:00,67.0,54.0,30.08,East,95,0.0,0.0,63,0.00,,CLR,0.00,VWS V14.01,2013-07-02 05:57:00,
2013-07-02 01:02:00,66.8,53.8,30.08,East,95,0.0,0.0,63,0.00,,CLR,0.00,VWS V14.01,2013-07-02 06:02:00,
2013-07-02 01:07:00,66.6,53.6,30.08,East,95,0.0,0.0,63,0.00,,CLR,0.00,VWS V14.01,2013-07-02 06:07:00,
2013-07-02 01:12:00,66.4,53.9,30.08,East,95,0.0,0.0,64,0.00,,CLR,0.00,VWS V14.01,2013-07-02 06:12:00,
2013-07-02 01:17:00,66.2,53.7,30.08,East,95,0.0,0.0,64,0.00,,CLR,0.00,VWS V14.01,2013-07-02 06:17:00,
2013-07-02 01:23:00,65.8,54.1,30.08,East,95,0.0,0.0,66,0.00,,CLR,0.00,VWS V14.01,2013-07-02 06:23:00,
2013-07-02 01:28:00,65.4,53.8,30.08,East,95,0.0,0.0,66,0.00,,CLR,0.00,VWS V14.01,2013-07-02 06:28:00,
2013-07-02 01:33:00,65.1,53.9,30.08,East,95,0.0,0.0,67,0.00,,CLR,0.00,VWS V14.01,2013-07-02 06:33:00,
2013-07-02 01:38:00,64.9,54.1,30.08,East,95,0.0,0.0,68,0.00,,CLR,0.00,VWS V14.01,2013-07-02 06:38:00,
2013-07-02 01:43:00,64.6,53.8,30.08,East,95,0.0,0.0,68,0.00,,CLR,0.00,VWS V14.01,2013-07-02 06:43:00,
2013-07-02 01:48:00,64.4,54.0,30.08,East,95,0.0,1.0,69,0.00,,CLR,0.00,VWS V14.01,2013-07-02 06:48:00,
2013-07-02 01:53:00,64.2,53.8,30.08,East,95,0.0,0.0,69,0.00,,CLR,0.00,VWS V14.01,2013-07-02 06:53:00,
2013-07-02 01:58:00,64.2,53.8,30.08,East,95,0.0,0.0,69,0.00,,CLR,0.00,VWS V14.01,2013-07-02 06:58:00,
2013-07-02 02:03:00,64.1,53.7,30.08,East,95,0.0,0.0,69,0.00,,CLR,0.00,VWS V14.01,2013-07-02 07:03:00,
2013-07-02 02:08:00,64.2,53.4,30.08,East,95,0.0,0.0,68,0.00,,CLR,0.00,VWS V14.01,2013-07-02 07:08:00,
2013-07-02 02:13:00,64.2,53.8,30.08,East,95,0.0,0.0,69,0.00,,CLR,0.00,VWS V14.01,2013-07-02 07:13:00,
2013-07-02 02:18:00,64.1,53.3,30.08,East,95,0.0,0.0,68,0.00,,CLR,0.00,VWS V14.01,2013-07-02 07:18:00,
2013-07-02 02:23:00,64.1,53.3,30.08,East,95,0.0,0.0,68,0.00,,CLR,0.00,VWS V14.01,2013-07-02 07:23:00,
2013-07-02 02:28:00,64.3,53.5,30.08,East,95,0.0,0.0,68,0.00,,CLR,0.00,VWS V14.01,2013-07-02 07:28:00,
2013-07-02 02:33:00,64.3,53.1,30.08,East,95,0.0,0.0,67,0.00,,CLR,0.00,VWS V14.01,2013-07-02 07:33:00,
2013-07-02 02:38:00,64.3,53.5,30.08,East,95,0.0,0.0,68,0.00,,CLR,0.00,VWS V14.01,2013-07-02 07:38:00,
2013-07-02 02:43:00,64.2,53.4,30.08,East,95,0.0,0.0,68,0.00,,CLR,0.00,VWS V14.01,2013-07-02 07:43:00,
2013-07-02 02:48:00,64.0,53.2,30.07,East,95,0.0,0.0,68,0.00,,CLR,0.00,VWS V14.01,2013-07-02 07:48:00,
2013-07-02 02:53:00,63.9,53.5,30.07,East,95,0.0,0.0,69,0.00,,CLR,0.00,VWS V14.01,2013-07-02 07:53:00,
2013-07-02 02:58:00,63.6,53.7,30.07,East,95,0.0,0.0,70,0.00,,CLR,0.00,VWS V14.01,2013-07-02 07:58:00,
2013-07-02 03:03:00,63.4,53.5,30.07,East,95,0.0,0.0,70,0.00,,CLR,0.00,VWS V14.01,2013-07-02 08:03:00,
2013-07-02 03:08:00,63.1,53.6,30.07,East,95,0.0,0.0,71,0.00,,CLR,0.00,VWS V14.01,2013-07-02 08:08:00,
2013-07-02 03:13:00,63.0,53.5,30.07,East,95,0.0,0.0,71,0.00,,CLR,0.00,VWS V14.01,2013-07-02 08:13:00,
2013-07-02 03:18:00,62.9,53.8,30.07,East,95,0.0,0.0,72,0.00,,CLR,0.00,VWS V14.01,2013-07-02 08:18:00,
2013-07-02 03:23:00,62.8,53.3,30.07,East,95,0.0,0.0,71,0.00,,CLR,0.00,VWS V14.01,2013-07-02 08:23:00,
2013-07-02 03:28:00,62.8,53.3,30.07,East,95,0.0,0.0,71,0.00,,CLR,0.00,VWS V14.01,2013-07-02 08:28:00,
2013-07-02 03:33:00,62.7,53.2,30.07,East,95,0.0,0.0,71,0.00,,CLR,0.00,VWS V14.01,2013-07-02 08:33:00,
2013-07-02 03:38:00,62.7,53.2,30.07,East,95,0.0,0.0,71,0.00,,CLR,0.00,VWS V14.01,2013-07-02 08:38:00,
2013-07-02 03:43:00,62.6,53.1,30.07,East,95,0.0,1.0,71,0.00,,FEW200,0.00,VWS V14.01,2013-07-02 08:43:00,
2013-07-02 03:48:00,62.6,53.5,30.07,East,95,0.0,0.0,72,0.00,,FEW200,0.00,VWS V14.01,2013-07-02 08:48:00,
2013-07-02 03:53:00,62.5,53.7,30.07,East,95,0.0,1.0,73,0.00,,FEW200,0.00,VWS V14.01,2013-07-02 08:53:00,
2013-07-02 03:58:00,62.4,53.3,30.07,East,95,0.0,1.0,72,0.00,,FEW200,0.00,VWS V14.01,2013-07-02 08:58:00,
2013-07-02 04:03:00,62.5,53.0,30.07,East,95,0.0,1.0,71,0.00,,FEW200,0.00,VWS V14.01,2013-07-02 09:03:00,
2013-07-02 04:08:00,62.6,53.1,30.07,East,95,0.0,0.0,71,0.00,,FEW200,0.00,VWS V14.01,2013-07-02 09:08:00,
2013-07-02 04:13:00,62.5,53.0,30.07,East,95,0.0,1.0,71,0.00,,FEW200,0.00,VWS V14.01,2013-07-02 09:13:00,
2013-07-02 04:19:00,62.4,53.3,30.07,East,95,0.0,0.0,72,0.00,,FEW200,0.00,VWS V14.01,2013-07-02 09:19:00,
2013-07-02 04:24:00,62.2,53.1,30.07,East,95,0.0,0.0,72,0.00,,FEW200,0.00,VWS V14.01,2013-07-02 09:24:00,
2013-07-02 04:29:00,62.2,53.5,30.07,East,95,0.0,1.0,73,0.00,,FEW200,0.00,VWS V14.01,2013-07-02 09:29:00,
2013-07-02 04:34:00,62.2,53.1,30.07,East,95,0.0,1.0,72,0.00,,BKN110,0.00,VWS V14.01,2013-07-02 09:34:00,
2013-07-02 04:39:00,62.2,52.7,30.07,East,95,1.0,1.0,71,0.00,,BKN110,0.00,VWS V14.01,2013-07-02 09:39:00,
2013-07-02 04:44:00,62.3,53.2,30.08,East,95,1.0,1.0,72,0.00,,BKN110,0.00,VWS V14.01,2013-07-02 09:44:00,
2013-07-02 04:49:00,62.2,53.1,30.08,East,95,0.0,1.0,72,0.00,,BKN110,0.00,VWS V14.01,2013-07-02 09:49:00,
2013-07-02 04:54:00,62.1,52.6,30.08,East,95,1.0,1.0,71,0.00,,BKN110,0.00,VWS V14.01,2013-07-02 09:54:00,
2013-07-02 04:59:00,62.3,52.8,30.08,East,95,0.0,1.0,71,0.00,,BKN110,0.00,VWS V14.01,2013-07-02 09:59:00,
2013-07-02 05:04:00,62.3,52.8,30.08,East,95,1.0,1.0,71,0.00,,BKN110,0.00,VWS V14.01,2013-07-02 10:04:00,
2013-07-02 05:09:00,62.2,53.1,30.08,East,95,0.0,0.0,72,0.00,,BKN110,0.00,VWS V14.01,2013-07-02 10:09:00,
2013-07-02 05:14:00,62.1,52.6,30.08,East,95,0.0,0.0,71,0.00,,BKN110,0.00,VWS V14.01,2013-07-02 10:14:00,
2013-07-02 05:19:00,62.1,52.6,30.08,East,95,0.0,0.0,71,0.00,,BKN110,0.00,VWS V14.01,2013-07-02 10:19:00,
2013-07-02 05:24:00,62.1,52.6,30.08,East,95,0.0,1.0,71,0.00,,BKN110,0.00,VWS V14.01,2013-07-02 10:24:00,
2013-07-02 05:29:00,62.0,52.5,30.08,East,95,1.0,1.0,71,0.00,,BKN110,0.00,VWS V14.01,2013-07-02 10:29:00,
2013-07-02 05:34:00,61.9,52.4,30.08,East,95,0.0,0.0,71,0.00,,BKN110,0.00,VWS V14.01,2013-07-02 10:34:00,
2013-07-02 05:39:00,61.9,52.4,30.08,East,95,0.0,0.0,71,0.00,,BKN110,0.00,VWS V14.01,2013-07-02 10:39:00,
2013-07-02 05:44:00,61.9,52.4,30.08,East,95,0.0,1.0,71,0.00,,FEW120,0.00,VWS V14.01,2013-07-02 10:44:00,
2013-07-02 05:49:00,61.8,52.3,30.08,East,95,0.0,0.0,71,0.00,,FEW120,0.00,VWS V14.01,2013-07-02 10:49:00,
2013-07-02 05:54:00,61.7,52.2,30.09,East,95,0.0,0.0,71,0.00,,FEW120,0.00,VWS V14.01,2013-07-02 10:54:00,
2013-07-02 05:59:00,61.6,52.5,30.09,East,95,0.0,0.0,72,0.00,,FEW120,0.00,VWS V14.01,2013-07-02 10:59:00,
2013-07-02 06:04:00,61.4,52.3,30.09,East,95,0.0,0.0,72,0.00,,FEW120,0.00,VWS V14.01,2013-07-02 11:04:00,
2013-07-02 06:09:00,61.2,52.5,30.09,East,95,0.0,0.0,73,0.00,,FEW120,0.00,VWS V14.01,2013-07-02 11:09:00,
2013-07-02 06:14:00,61.1,52.0,30.09,East,95,0.0,0.0,72,0.00,,FEW120,0.00,VWS V14.01,2013-07-02 11:14:00,
2013-07-02 06:19:00,61.1,52.4,30.10,East,95,0.0,0.0,73,0.00,,FEW120,0.00,VWS V14.01,2013-07-02 11:19:00,
2013-07-02 06:24:00,60.9,52.6,30.10,East,95,0.0,0.0,74,0.00,,FEW120,0.00,VWS V14.01,2013-07-02 11:24:00,
2013-07-02 06:29:00,60.7,52.4,30.10,East,95,0.0,0.0,74,0.00,,FEW120,0.00,VWS V14.01,2013-07-02 11:29:00,
2013-07-02 06:34:00,60.6,52.6,30.10,East,95,0.0,0.0,75,0.00,,FEW120,0.00,VWS V14.01,2013-07-02 11:34:00,
2013-07-02 06:39:00,60.6,53.0,30.10,East,95,0.0,0.0,76,0.00,,FEW120,0.00,VWS V14.01,2013-07-02 11:39:00,
2013-07-02 06:44:00,60.8,52.8,30.10,East,95,0.0,1.0,75,0.00,,BKN110,0.00,VWS V14.01,2013-07-02 11:44:00,
2013-07-02 06:49:00,61.1,52.8,30.10,East,95,0.0,1.0,74,0.00,,BKN110,0.00,VWS V14.01,2013-07-02 11:49:00,
2013-07-02 06:54:00,61.4,52.7,30.10,East,95,1.0,1.0,73,0.00,,BKN110,0.00,VWS V14.01,2013-07-02 11:54:00,
2013-07-02 06:59:00,61.9,53.2,30.10,East,95,0.0,0.0,73,0.00,,BKN110,0.00,VWS V14.01,2013-07-02 11:59:00,
2013-07-02 07:04:00,62.3,53.2,30.10,East,95,0.0,2.0,72,0.00,,BKN110,0.00,VWS V14.01,2013-07-02 12:04:00,
2013-07-02 07:09:00,62.8,52.9,30.10,East,95,0.0,1.0,70,0.00,,BKN110,0.00,VWS V14.01,2013-07-02 12:09:00,
2013-07-02 07:14:00,63.4,53.5,30.10,East,95,0.0,0.0,70,0.00,,BKN110,0.00,VWS V14.01,2013-07-02 12:14:00,
2013-07-02 07:19:00,63.9,53.9,30.10,East,95,0.0,1.0,70,0.00,,BKN110,0.00,VWS V14.01,2013-07-02 12:19:00,
2013-07-02 07:24:00,64.5,54.1,30.10,East,95,0.0,1.0,69,0.00,,BKN110,0.00,VWS V14.01,2013-07-02 12:24:00,
2013-07-02 07:29:00,64.7,54.3,30.10,East,95,0.0,0.0,69,0.00,,BKN110,0.00,VWS V14.01,2013-07-02 12:29:00,
2013-07-02 07:34:00,64.7,54.3,30.10,East,95,0.0,2.0,69,0.00,,BKN110,0.00,VWS V14.01,2013-07-02 12:34:00,
2013-07-02 07:39:00,64.9,54.5,30.10,East,95,1.0,3.0,69,0.00,,BKN110,0.00,VWS V14.01,2013-07-02 12:39:00,
2013-07-02 07:44:00,65.3,54.9,30.10,East,95,0.0,0.0,69,0.00,,BKN110,0.00,VWS V14.01,2013-07-02 12:44:00,
2013-07-02 07:49:00,65.9,55.0,30.10,East,95,0.0,1.0,68,0.00,,BKN110,0.00,VWS V14.01,2013-07-02 12:49:00,
2013-07-02 07:54:00,66.7,55.4,30.10,East,95,0.0,0.0,67,0.00,,BKN110,0.00,VWS V14.01,2013-07-02 12:54:00,
2013-07-02 07:59:00,67.3,55.2,30.10,East,95,0.0,1.0,65,0.00,,BKN110,0.00,VWS V14.01,2013-07-02 12:59:00,
2013-07-02 08:04:00,67.6,56.3,30.10,East,95,0.0,1.0,67,0.00,,BKN110,0.00,VWS V14.01,2013-07-02 13:04:00,
2013-07-02 08:09:00,67.9,55.7,30.10,East,93,2.0,2.0,65,0.00,,BKN110,0.00,VWS V14.01,2013-07-02 13:09:00,
2013-07-02 08:14:00,68.6,56.4,30.10,East,93,0.0,0.0,65,0.00,,BKN110,0.00,VWS V14.01,2013-07-02 13:14:00,
2013-07-02 08:20:00,69.3,56.6,30.10,East,93,0.0,1.0,64,0.00,,BKN110,0.00,VWS V14.01,2013-07-02 13:20:00,
2013-07-02 08:25:00,69.7,57.0,30.10,East,93,0.0,1.0,64,0.00,,BKN110,0.00,VWS V14.01,2013-07-02 13:25:00,
2013-07-02 08:30:00,70.2,57.9,30.10,East,93,0.0,0.0,65,0.00,,BKN110,0.00,VWS V14.01,2013-07-02 13:30:00,
2013-07-02 08:35:00,70.8,58.9,30.10,East,93,0.0,1.0,66,0.00,,BKN110,0.00,VWS V14.01,2013-07-02 13:35:00,
2013-07-02 08:40:00,71.7,59.8,30.10,East,93,0.0,0.0,66,0.00,,BKN110,0.00,VWS V14.01,2013-07-02 13:40:00,
2013-07-02 08:45:00,72.2,58.5,30.10,East,93,0.0,0.0,62,0.00,,BKN110,0.00,VWS V14.01,2013-07-02 13:45:00,
2013-07-02 08:50:00,73.1,58.4,30.10,East,93,1.0,1.0,60,0.00,,BKN110,0.00,VWS V14.01,2013-07-02 13:50:00,
2013-07-02 08:55:00,73.9,56.2,30.10,East,93,0.0,2.0,54,0.00,,BKN110,0.00,VWS V14.01,2013-07-02 13:55:00,
2013-07-02 09:00:00,74.4,55.1,30.10,East,93,0.0,1.0,51,0.00,,BKN110,0.00,VWS V14.01,2013-07-02 14:00:00,
2013-07-02 09:05:00,74.4,56.7,30.10,East,93,0.0,0.0,54,0.00,,BKN110,0.00,VWS V14.01,2013-07-02 14:05:00,
2013-07-02 09:10:00,74.6,57.4,30.10,East,93,0.0,0.0,55,0.00,,BKN110,0.00,VWS V14.01,2013-07-02 14:10:00,
2013-07-02 09:15:00,74.9,57.7,30.10,East,93,1.0,2.0,55,0.00,,BKN110,0.00,VWS V14.01,2013-07-02 14:15:00,
2013-07-02 09:20:00,74.4,57.2,30.10,ESE,102,0.0,1.0,55,0.00,,BKN110,0.00,VWS V14.01,2013-07-02 14:20:00,
2013-07-02 09:25:00,74.7,57.0,30.10,East,93,2.0,3.0,54,0.00,,BKN110,0.00,VWS V14.01,2013-07-02 14:25:00,
2013-07-02 09:30:00,75.4,57.6,30.10,SW,214,1.0,2.0,54,0.00,,BKN110,0.00,VWS V14.01,2013-07-02 14:30:00,
2013-07-02 09:35:00,75.5,58.7,30.10,SW,215,0.0,1.0,56,0.00,,BKN110,0.00,VWS V14.01,2013-07-02 14:35:00,
2013-07-02 09:40:00,75.1,57.3,30.10,West,277,0.0,2.0,54,0.00,,BKN110,0.00,VWS V14.01,2013-07-02 14:40:00,
2013-07-02 09:45:00,74.6,58.4,30.10,West,278,0.0,2.0,57,0.00,,BKN110,0.00,VWS V14.01,2013-07-02 14:45:00,
2013-07-02 09:50:00,75.0,59.2,30.09,West,279,3.0,3.0,58,0.00,,BKN110,0.00,VWS V14.01,2013-07-02 14:50:00,
2013-07-02 09:55:00,74.9,57.7,30.09,WNW,283,0.0,3.0,55,0.00,,BKN110,0.00,VWS V14.01,2013-07-02 14:55:00,
2013-07-02 10:00:00,74.9,56.1,30.09,WNW,287,1.0,3.0,52,0.00,,BKN110,0.00,VWS V14.01,2013-07-02 15:00:00,
2013-07-02 10:05:00,75.1,57.3,30.09,WNW,287,0.0,0.0,54,0.00,,BKN110,0.00,VWS V14.01,2013-07-02 15:05:00,
2013-07-02 10:10:00,75.5,57.7,30.09,WNW,287,0.0,2.0,54,0.00,,BKN110,0.00,VWS V14.01,2013-07-02 15:10:00,
2013-07-02 10:15:00,75.6,56.8,30.09,WNW,287,0.0,2.0,52,0.00,,BKN110,0.00,VWS V14.01,2013-07-02 15:15:00,
2013-07-02 10:20:00,75.6,57.3,30.09,WNW,287,0.0,1.0,53,0.00,,BKN110,0.00,VWS V14.01,2013-07-02 15:20:00,
2013-07-02 10:25:00,75.5,57.7,30.09,WNW,287,0.0,2.0,54,0.00,,BKN110,0.00,VWS V14.01,2013-07-02 15:25:00,
2013-07-02 10:30:00,75.7,57.9,30.09,West,267,2.0,2.0,54,0.00,,BKN110,0.00,VWS V14.01,2013-07-02 15:30:00,
2013-07-02 10:35:00,76.1,58.3,30.09,West,276,0.0,2.0,54,0.00,,BKN110,0.00,VWS V14.01,2013-07-02 15:35:00,
2013-07-02 10:40:00,76.5,57.0,30.09,WNW,289,2.0,2.0,51,0.00,,BKN110,0.00,VWS V14.01,2013-07-02 15:40:00,
2013-07-02 10:45:00,76.8,57.9,30.09,WNW,287,1.0,2.0,52,0.00,,BKN110,0.00,VWS V14.01,2013-07-02 15:45:00,
2013-07-02 10:50:00,77.5,57.4,30.09,WNW,287,1.0,1.0,50,0.00,,BKN110,0.00,VWS V14.01,2013-07-02 15:50:00,
2013-07-02 10:55:00,78.2,56.3,30.09,WNW,287,0.0,1.0,47,0.00,,BKN110,0.00,VWS V14.01,2013-07-02 15:55:00,
2013-07-02 11:00:00,78.3,55.8,30.09,WNW,287,2.0,3.0,46,0.00,,BKN110,0.00,VWS V14.01,2013-07-02 16:00:00,
2013-07-02 11:05:00,78.0,56.2,30.09,NW,310,1.0,2.0,47,0.00,,BKN110,0.00,VWS V14.01,2013-07-02 16:05:00,
2013-07-02 11:10:00,79.1,56.6,30.09,NNE,18,2.0,5.0,46,0.00,,BKN110,0.00,VWS V14.01,2013-07-02 16:10:00,
2013-07-02 11:15:00,79.4,55.6,30.09,NE,55,3.0,3.0,44,0.00,,BKN110,0.00,VWS V14.01,2013-07-02 16:15:00,
2013-07-02 11:20:00,79.2,56.7,30.09,NE,42,0.0,2.0,46,0.00,,BKN110,0.00,VWS V14.01,2013-07-02 16:20:00,
2013-07-02 11:26:00,79.1,56.6,30.09,North,4,0.0,0.0,46,0.00,,BKN110,0.00,VWS V14.01,2013-07-02 16:26:00,
2013-07-02 11:31:00,79.2,55.4,30.09,North,359,1.0,1.0,44,0.00,,BKN110,0.00,VWS V14.01,2013-07-02 16:31:00,
2013-07-02 11:36:00,79.2,54.8,30.09,North,359,0.0,1.0,43,0.00,,BKN100,0.00,VWS V14.01,2013-07-02 16:36:00,
2013-07-02 11:41:00,79.3,56.8,30.09,NW,323,2.0,3.0,46,0.00,,BKN100,0.00,VWS V14.01,2013-07-02 16:41:00,
2013-07-02 11:46:00,80.0,56.2,30.09,NW,324,1.0,1.0,44,0.00,,BKN100,0.00,VWS V14.01,2013-07-02 16:46:00,
2013-07-02 11:51:00,80.0,58.0,30.09,West,260,3.0,3.0,47,0.00,,BKN100,0.00,VWS V14.01,2013-07-02 16:51:00,
2013-07-02 11:56:00,79.2,57.2,30.09,WSW,258,1.0,2.0,47,0.00,,BKN100,0.00,VWS V14.01,2013-07-02 16:56:00,
2013-07-02 12:01:00,79.3,55.5,30.09,West,280,2.0,2.0,44,0.00,,BKN100,0.00,VWS V14.01,2013-07-02 17:01:00,
2013-07-02 12:06:00,79.9,56.7,30.09,NNE,19,2.0,2.0,45,0.00,,BKN100,0.00,VWS V14.01,2013-07-02 17:06:00,
2013-07-02 12:11:00,80.2,56.3,30.09,SSE,168,0.0,5.0,44,0.00,,BKN100,0.00,VWS V14.01,2013-07-02 17:11:00,
2013-07-02 12:16:00,80.4,58.3,30.09,WNW,303,0.0,1.0,47,0.00,,BKN100,0.00,VWS V14.01,2013-07-02 17:16:00,
2013-07-02 12:21:00,80.7,56.8,30.08,West,266,3.0,5.0,44,0.00,,BKN100,0.00,VWS V14.01,2013-07-02 17:21:00,
2013-07-02 12:26:00,80.0,56.2,30.08,NW,308,1.0,3.0,44,0.00,,BKN100,0.00,VWS V14.01,2013-07-02 17:26:00,
2013-07-02 12:31:00,80.4,55.9,30.08,NNE,31,3.0,3.0,43,0.00,,BKN100,0.00,VWS V14.01,2013-07-02 17:31:00,
2013-07-02 12:36:00,81.2,57.2,30.08,NNE,29,0.0,2.0,44,0.00,,BKN100,0.00,VWS V14.01,2013-07-02 17:36:00,
2013-07-02 12:41:00,81.9,56.6,30.08,NW,304,2.0,3.0,42,0.00,,SCT120,0.00,VWS V14.01,2013-07-02 17:41:00,
2013-07-02 12:46:00,81.6,57.0,30.08,NNW,330,1.0,2.0,43,0.00,,SCT120,0.00,VWS V14.01,2013-07-02 17:46:00,
2013-07-02 12:51:00,81.4,54.1,30.08,WNW,286,3.0,3.0,39,0.00,,SCT120,0.00,VWS V14.01,2013-07-02 17:51:00,
2013-07-02 12:56:00,80.3,51.7,30.08,WSW,250,3.0,3.0,37,0.00,,SCT120,0.00,VWS V14.01,2013-07-02 17:56:00,
2013-07-02 13:01:00,80.0,54.9,30.08,WSW,246,5.0,5.0,42,0.00,,SCT120,0.00,VWS V14.01,2013-07-02 18:01:00,
2013-07-02 13:06:00,80.1,55.6,30.08,West,274,2.0,6.0,43,0.00,,SCT120,0.00,VWS V14.01,2013-07-02 18:06:00,
2013-07-02 13:11:00,79.9,53.5,30.08,West,262,0.0,3.0,40,0.00,,SCT120,0.00,VWS V14.01,2013-07-02 18:11:00,
2013-07-02 13:16:00,80.3,53.8,30.07,SSE,160,2.0,2.0,40,0.00,,SCT120,0.00,VWS V14.01,2013-07-02 18:16:00,
2013-07-02 13:21:00,81.0,54.4,30.07,WSW,253,1.0,4.0,40,0.00,,SCT120,0.00,VWS V14.01,2013-07-02 18:21:00,
2013-07-02 13:37:00,81.4,54.8,30.07,North,4,1.0,1.0,40,0.00,,SCT120,0.00,VWS V14.01,2013-07-02 18:37:00,
2013-07-02 13:42:00,81.1,53.1,30.07,WNW,285,0.0,2.0,38,0.00,,SCT250,0.00,VWS V14.01,2013-07-02 18:42:00,
2013-07-02 13:47:00,81.0,53.0,30.07,SE,133,1.0,4.0,38,0.00,,SCT250,0.00,VWS V14.01,2013-07-02 18:47:00,
2013-07-02 13:52:00,81.0,53.0,30.07,SSE,150,0.0,5.0,38,0.00,,SCT250,0.00,VWS V14.01,2013-07-02 18:52:00,
2013-07-02 13:57:00,81.2,54.6,30.06,WSW,237,1.0,3.0,40,0.00,,SCT250,0.00,VWS V14.01,2013-07-02 18:57:00,
2013-07-02 14:02:00,81.6,52.8,30.06,West,264,1.0,4.0,37,0.00,,SCT250,0.00,VWS V14.01,2013-07-02 19:02:00,
2013-07-02 14:07:00,82.5,56.5,30.06,North,359,0.0,2.0,41,0.00,,SCT250,0.00,VWS V14.01,2013-07-02 19:07:00,
2013-07-02 14:12:00,83.5,53.0,30.06,WSW,244,1.0,4.0,35,0.00,,SCT250,0.00,VWS V14.01,2013-07-02 19:12:00,
2013-07-02 14:17:00,83.3,56.5,30.06,WSW,245,3.0,3.0,40,0.00,,SCT250,0.00,VWS V14.01,2013-07-02 19:17:00,
2013-07-02 14:22:00,82.9,53.2,30.06,WNW,290,1.0,2.0,36,0.00,,SCT250,0.00,VWS V14.01,2013-07-02 19:22:00,
2013-07-02 14:27:00,82.5,53.6,30.06,WSW,249,1.0,1.0,37,0.00,,SCT250,0.00,VWS V14.01,2013-07-02 19:27:00,
2013-07-02 14:32:00,83.0,54.8,30.06,North,10,3.0,4.0,38,0.00,,FEW090,0.00,VWS V14.01,2013-07-02 19:32:00,
2013-07-02 14:37:00,83.0,54.8,30.06,SSW,211,2.0,2.0,38,0.00,,FEW090,0.00,VWS V14.01,2013-07-02 19:37:00,
2013-07-02 14:42:00,82.9,56.1,30.05,West,275,1.0,3.0,40,0.00,,FEW090,0.00,VWS V14.01,2013-07-02 19:42:00,
2013-07-02 14:47:00,82.5,55.1,30.05,WNW,294,1.0,4.0,39,0.00,,FEW090,0.00,VWS V14.01,2013-07-02 19:47:00,
2013-07-02 14:52:00,82.1,56.1,30.05,WSW,239,3.0,4.0,41,0.00,,FEW090,0.00,VWS V14.01,2013-07-02 19:52:00,
2013-07-02 14:57:00,82.0,58.0,30.05,WSW,250,1.0,4.0,44,0.00,,FEW090,0.00,VWS V14.01,2013-07-02 19:57:00,
2013-07-02 15:02:00,81.7,57.0,30.05,South,187,2.0,2.0,43,0.00,,FEW090,0.00,VWS V14.01,2013-07-02 20:02:00,
2013-07-02 15:07:00,82.1,59.3,30.04,SSE,164,1.0,3.0,46,0.00,,FEW090,0.00,VWS V14.01,2013-07-02 20:07:00,
2013-07-02 15:12:00,82.5,57.8,30.04,NNE,17,0.0,2.0,43,0.00,,FEW090,0.00,VWS V14.01,2013-07-02 20:12:00,
2013-07-02 15:17:00,83.0,56.9,30.04,WNW,297,3.0,4.0,41,0.00,,FEW090,0.00,VWS V14.01,2013-07-02 20:17:00,
2013-07-02 15:22:00,82.5,56.5,30.04,WNW,296,2.0,3.0,41,0.00,,FEW090,0.00,VWS V14.01,2013-07-02 20:22:00,
2013-07-02 15:27:00,82.3,55.6,30.04,NNE,16,2.0,5.0,40,0.00,,FEW090,0.00,VWS V14.01,2013-07-02 20:27:00,
2013-07-02 15:32:00,82.7,56.0,30.03,NNE,30,2.0,2.0,40,0.00,,FEW090,0.00,VWS V14.01,2013-07-02 20:32:00,
2013-07-02 15:37:00,83.4,55.9,30.03,NE,34,4.0,4.0,39,0.00,,FEW090,0.00,VWS V14.01,2013-07-02 20:37:00,
2013-07-02 15:42:00,83.5,55.2,30.03,WSW,253,2.0,4.0,38,0.00,,SCT250,0.00,VWS V14.01,2013-07-02 20:42:00,
2013-07-02 15:47:00,83.5,56.0,30.03,WNW,290,3.0,3.0,39,0.00,,SCT250,0.00,VWS V14.01,2013-07-02 20:47:00,
2013-07-02 15:52:00,82.6,55.2,30.03,WNW,296,1.0,3.0,39,0.00,,SCT250,0.00,VWS V14.01,2013-07-02 20:52:00,
2013-07-02 15:57:00,82.6,55.2,30.03,WNW,287,1.0,3.0,39,0.00,,SCT250,0.00,VWS V14.01,2013-07-02 20:57:00,
2013-07-02 16:02:00,82.8,54.6,30.03,NNE,23,0.0,1.0,38,0.00,,SCT250,0.00,VWS V14.01,2013-07-02 21:02:00,
2013-07-02 16:07:00,82.9,56.8,30.03,NW,325,0.0,1.0,41,0.00,,SCT250,0.00,VWS V14.01,2013-07-02 21:07:00,
2013-07-02 16:12:00,82.8,56.7,30.03,WNW,290,0.0,1.0,41,0.00,,SCT250,0.00,VWS V14.01,2013-07-02 21:12:00,
2013-07-02 16:17:00,82.8,58.0,30.03,WNW,297,0.0,2.0,43,0.00,,SCT250,0.00,VWS V14.01,2013-07-02 21:17:00,
2013-07-02 16:22:00,82.1,56.1,30.03,WSW,250,1.0,2.0,41,0.00,,SCT250,0.00,VWS V14.01,2013-07-02 21:22:00,
2013-07-02 16:27:00,81.3,55.4,30.02,West,280,1.0,2.0,41,0.00,,SCT250,0.00,VWS V14.01,2013-07-02 21:27:00,
2013-07-02 16:32:00,80.8,55.6,30.02,West,280,0.0,2.0,42,0.00,,SCT250,0.00,VWS V14.01,2013-07-02 21:32:00,
2013-07-02 16:37:00,80.7,56.2,30.02,West,279,0.0,1.0,43,0.00,,SCT250,0.00,VWS V14.01,2013-07-02 21:37:00,
2013-07-02 16:42:00,81.0,57.1,30.01,NNE,15,0.0,3.0,44,0.00,,BKN250,0.00,VWS V14.01,2013-07-02 21:42:00,
2013-07-02 16:47:00,80.9,57.0,30.01,WNW,291,2.0,3.0,44,0.00,,BKN250,0.00,VWS V14.01,2013-07-02 21:47:00,
2013-07-02 16:53:00,80.5,56.6,30.01,NNE,25,2.0,2.0,44,0.00,,BKN250,0.00,VWS V14.01,2013-07-02 21:53:00,
2013-07-02 16:58:00,80.4,57.8,30.02,North,354,1.0,2.0,46,0.00,,BKN250,0.00,VWS V14.01,2013-07-02 21:58:00,
2013-07-02 17:03:00,80.3,56.4,30.02,North,11,2.0,3.0,44,0.00,,BKN250,0.00,VWS V14.01,2013-07-02 22:03:00,
2013-07-02 17:08:00,80.6,56.7,30.02,NW,326,0.0,1.0,44,0.00,,BKN250,0.00,VWS V14.01,2013-07-02 22:08:00,
2013-07-02 17:13:00,81.1,57.8,30.02,NW,305,2.0,3.0,45,0.00,,BKN250,0.00,VWS V14.01,2013-07-02 22:13:00,
2013-07-02 17:18:00,81.0,57.1,30.01,WNW,293,0.0,1.0,44,0.00,,BKN250,0.00,VWS V14.01,2013-07-02 22:18:00,
2013-07-02 17:23:00,81.1,57.8,30.01,NNE,18,2.0,4.0,45,0.00,,BKN250,0.00,VWS V14.01,2013-07-02 22:23:00,
2013-07-02 17:28:00,80.8,57.5,30.01,WNW,289,2.0,3.0,45,0.00,,BKN250,0.00,VWS V14.01,2013-07-02 22:28:00,
2013-07-02 17:33:00,80.4,56.5,30.02,NE,45,2.0,3.0,44,0.00,,BKN250,0.00,VWS V14.01,2013-07-02 22:33:00,
2013-07-02 17:38:00,80.3,57.0,30.01,NNE,33,1.0,2.0,45,0.00,,BKN250,0.00,VWS V14.01,2013-07-02 22:38:00,
2013-07-02 17:43:00,80.2,58.2,30.01,NW,310,2.0,3.0,47,0.00,,BKN250,0.00,VWS V14.01,2013-07-02 22:43:00,
2013-07-02 17:48:00,79.8,57.2,30.01,NW,310,1.0,2.0,46,0.00,,BKN250,0.00,VWS V14.01,2013-07-02 22:48:00,
2013-07-02 17:53:00,79.6,57.6,30.01,WNW,297,0.0,1.0,47,0.00,,BKN250,0.00,VWS V14.01,2013-07-02 22:53:00,
2013-07-02 17:58:00,79.7,58.3,30.01,WNW,297,1.0,1.0,48,0.00,,BKN250,0.00,VWS V14.01,2013-07-02 22:58:00,
2013-07-02 18:03:00,80.1,58.7,30.01,WNW,297,0.0,3.0,48,0.00,,BKN250,0.00,VWS V14.01,2013-07-02 23:03:00,
2013-07-02 18:08:00,80.2,58.8,30.01,NE,43,1.0,3.0,48,0.00,,BKN250,0.00,VWS V14.01,2013-07-02 23:08:00,
2013-07-02 18:13:00,80.3,58.8,30.01,NNE,17,1.0,2.0,48,0.00,,BKN250,0.00,VWS V14.01,2013-07-02 23:13:00,
2013-07-02 18:18:00,80.5,58.4,30.01,NW,314,1.0,3.0,47,0.00,,BKN250,0.00,VWS V14.01,2013-07-02 23:18:00,
2013-07-02 18:23:00,80.6,56.7,30.02,NNE,19,3.0,4.0,44,0.00,,BKN250,0.00,VWS V14.01,2013-07-02 23:23:00,
2013-07-02 18:28:00,80.8,56.9,30.02,North,9,3.0,3.0,44,0.00,,BKN250,0.00,VWS V14.01,2013-07-02 23:28:00,
2013-07-02 18:29:00,80.8,56.2,30.02,NNE,16,2.0,3.0,43,0.00,,BKN250,0.00,VWS V14.01,2013-07-02 23:29:00,
2013-07-02 18:34:00,80.9,57.6,30.01,NNE,33,6.0,6.0,45,0.00,,BKN250,0.00,VWS V14.01,2013-07-02 23:34:00,
2013-07-02 18:39:00,80.5,57.8,30.01,NNE,14,0.0,2.0,46,0.00,,BKN250,0.00,VWS V14.01,2013-07-02 23:39:00,
2013-07-02 18:44:00,80.0,59.7,30.01,NNE,14,2.0,3.0,50,0.00,,BKN250,0.00,VWS V14.01,2013-07-02 23:44:00,
2013-07-02 18:49:00,79.1,59.4,30.01,WNW,301,2.0,2.0,51,0.00,,BKN250,0.00,VWS V14.01,2013-07-02 23:49:00,
2013-07-02 18:54:00,78.2,59.7,30.01,North,354,1.0,3.0,53,0.00,,BKN250,0.00,VWS V14.01,2013-07-02 23:54:00,
2013-07-02 18:59:00,77.2,60.3,30.00,North,359,3.0,3.0,56,0.00,,BKN250,0.00,VWS V14.01,2013-07-02 23:59:00,
2013-07-02 19:01:00,76.6,60.7,30.00,NNE,15,3.0,5.0,58,0.00,,BKN250,0.00,VWS V14.01,2013-07-03 00:01:00,
2013-07-02 19:06:00,75.6,61.2,30.00,NNE,14,3.0,5.0,61,0.00,,BKN250,0.00,VWS V14.01,2013-07-03 00:06:00,
2013-07-02 19:11:00,74.8,61.8,30.00,North,4,1.0,3.0,64,0.00,,BKN250,0.00,VWS V14.01,2013-07-03 00:11:00,
2013-07-02 19:16:00,74.6,60.7,30.00,North,8,0.0,1.0,62,0.00,,BKN250,0.00,VWS V14.01,2013-07-03 00:16:00,
2013-07-02 19:21:00,74.6,59.8,29.99,North,8,1.0,1.0,60,0.00,,BKN250,0.00,VWS V14.01,2013-07-03 00:21:00,
2013-07-02 19:23:00,74.7,59.4,29.99,North,8,0.0,2.0,59,0.00,,BKN250,0.00,VWS V14.01,2013-07-03 00:23:00,
2013-07-02 19:24:00,74.8,59.0,29.99,North,8,1.0,3.0,58,0.00,,BKN250,0.00,VWS V14.01,2013-07-03 00:24:00,
2013-07-02 19:28:00,75.0,59.7,29.99,North,8,0.0,3.0,59,0.00,,BKN250,0.00,VWS V14.01,2013-07-03 00:28:00,
2013-07-02 19:33:00,75.1,59.8,29.99,North,10,0.0,1.0,59,0.00,,BKN250,0.00,VWS V14.01,2013-07-03 00:33:00,
2013-07-02 19:38:00,75.0,59.2,29.98,North,10,0.0,0.0,58,0.00,,BKN250,0.00,VWS V14.01,2013-07-03 00:38:00,
2013-07-02 19:43:00,74.8,58.6,29.98,North,10,0.0,2.0,57,0.00,,,0.00,VWS V14.01,2013-07-03 00:43:00,
2013-07-02 19:48:00,74.8,60.9,29.99,North,10,0.0,0.0,62,0.00,,,0.00,VWS V14.01,2013-07-03 00:48:00,
2013-07-02 19:53:00,74.4,60.5,29.99,North,10,0.0,1.0,62,0.00,,,0.00,VWS V14.01,2013-07-03 00:53:00,
2013-07-02 19:58:00,73.9,61.0,29.99,North,10,0.0,0.0,64,0.00,,,0.00,VWS V14.01,2013-07-03 00:58:00,
2013-07-02 20:00:00,73.8,61.7,29.99,North,10,0.0,0.0,66,0.00,,,0.00,VWS V14.01,2013-07-03 01:00:00,
2013-07-02 20:03:00,73.5,60.6,29.99,North,10,0.0,1.0,64,0.00,,,0.00,VWS V14.01,2013-07-03 01:03:00,
2013-07-02 20:08:00,73.5,59.2,30.00,North,10,0.0,3.0,61,0.00,,,0.00,VWS V14.01,2013-07-03 01:08:00,
2013-07-02 20:09:00,73.5,59.2,30.00,North,10,0.0,1.0,61,0.00,,,0.00,VWS V14.01,2013-07-03 01:09:00,
2013-07-02 20:14:00,73.7,59.4,30.00,North,4,0.0,1.0,61,0.00,,,0.00,VWS V14.01,2013-07-03 01:14:00,
2013-07-02 20:19:00,73.8,60.0,30.00,North,10,1.0,1.0,62,0.00,,,0.00,VWS V14.01,2013-07-03 01:19:00,
2013-07-02 20:24:00,73.7,59.9,30.00,North,4,0.0,1.0,62,0.00,,,0.00,VWS V14.01,2013-07-03 01:24:00,
2013-07-02 20:26:00,73.7,60.3,30.00,North,4,1.0,1.0,63,0.00,,,0.00,VWS V14.01,2013-07-03 01:26:00,
2013-07-02 20:31:00,73.5,60.6,30.00,North,4,0.0,0.0,64,0.00,,,0.00,VWS V14.01,2013-07-03 01:31:00,
2013-07-02 20:36:00,73.3,60.4,30.00,North,4,1.0,3.0,64,0.00,,,0.00,VWS V14.01,2013-07-03 01:36:00,
2013-07-02 20:41:00,73.1,60.7,30.00,North,4,1.0,3.0,65,0.00,,BKN250,0.00,VWS V14.01,2013-07-03 01:41:00,
2013-07-02 20:46:00,73.0,60.1,30.00,NNE,18,1.0,4.0,64,0.00,,BKN250,0.00,VWS V14.01,2013-07-03 01:46:00,
2013-07-02 20:49:00,72.9,60.0,30.00,NE,38,0.0,4.0,64,0.00,,BKN250,0.00,VWS V14.01,2013-07-03 01:49:00,
2013-07-02 20:50:00,72.9,60.0,30.00,NNE,26,3.0,4.0,64,0.00,,BKN250,0.00,VWS V14.01,2013-07-03 01:50:00,
2013-07-02 20:55:00,72.7,60.3,30.00,NNE,26,1.0,1.0,65,0.00,,BKN250,0.00,VWS V14.01,2013-07-03 01:55:00,
2013-07-02 21:00:00,72.6,58.8,30.00,NNE,13,2.0,5.0,62,0.00,,BKN250,0.00,VWS V14.01,2013-07-03 02:00:00,
2013-07-02 21:05:00,72.6,58.4,29.99,WNW,303,2.0,3.0,61,0.00,,BKN250,0.00,VWS V14.01,2013-07-03 02:05:00,
2013-07-02 21:10:00,72.7,58.5,29.99,WNW,294,1.0,5.0,61,0.00,,BKN250,0.00,VWS V14.01,2013-07-03 02:10:00,
2013-07-02 21:15:00,72.7,58.5,29.99,NNE,24,0.0,4.0,61,0.00,,BKN250,0.00,VWS V14.01,2013-07-03 02:15:00,
2013-07-02 21:20:00,72.5,58.3,29.99,North,9,3.0,5.0,61,0.00,,BKN250,0.00,VWS V14.01,2013-07-03 02:20:00,
2013-07-02 21:26:00,72.4,58.2,29.99,North,4,0.0,3.0,61,0.00,,BKN250,0.00,VWS V14.01,2013-07-03 02:26:00,
2013-07-02 21:31:00,72.2,58.5,29.99,North,9,3.0,5.0,62,0.00,,BKN250,0.00,VWS V14.01,2013-07-03 02:31:00,
2013-07-02 21:32:00,72.2,58.5,29.99,NNE,18,2.0,4.0,62,0.00,,BKN250,0.00,VWS V14.01,2013-07-03 02:32:00,
2013-07-02 21:37:00,72.0,57.8,29.99,NNE,13,2.0,2.0,61,0.00,,BKN250,0.00,VWS V14.01,2013-07-03 02:37:00,
2013-07-02 21:43:00,72.1,57.0,29.99,North,4,3.0,5.0,59,0.00,,BKN250,0.00,VWS V14.01,2013-07-03 02:43:00,
2013-07-02 21:46:00,72.1,57.0,30.00,NNE,18,3.0,3.0,59,0.00,,BKN250,0.00,VWS V14.01,2013-07-03 02:46:00,
2013-07-02 21:51:00,72.0,57.4,30.00,North,10,2.0,4.0,60,0.00,,BKN250,0.00,VWS V14.01,2013-07-03 02:51:00,
2013-07-02 21:56:00,71.7,58.0,30.00,North,10,2.0,4.0,62,0.00,,BKN250,0.00,VWS V14.01,2013-07-03 02:56:00,
2013-07-02 22:02:00,71.5,57.8,30.00,North,8,0.0,3.0,62,0.00,,BKN250,0.00,VWS V14.01,2013-07-03 03:02:00,
2013-07-02 22:03:00,71.5,57.8,30.00,North,8,0.0,2.0,62,0.00,,BKN250,0.00,VWS V14.01,2013-07-03 03:03:00,
2013-07-02 22:08:00,71.3,57.6,30.00,North,8,1.0,3.0,62,0.00,,BKN250,0.00,VWS V14.01,2013-07-03 03:08:00,
2013-07-02 22:13:00,71.1,57.9,30.01,North,8,0.0,2.0,63,0.00,,BKN250,0.00,VWS V14.01,2013-07-03 03:13:00,
2013-07-02 22:18:00,70.8,58.5,30.01,North,9,0.0,0.0,65,0.00,,BKN250,0.00,VWS V14.01,2013-07-03 03:18:00,
2013-07-02 22:20:00,70.6,58.3,30.01,North,9,1.0,1.0,65,0.00,,BKN250,0.00,VWS V14.01,2013-07-03 03:20:00,
2013-07-02 22:25:00,70.2,57.9,30.01,North,8,0.0,1.0,65,0.00,,BKN250,0.00,VWS V14.01,2013-07-03 03:25:00,
2013-07-02 22:30:00,70.0,58.1,30.01,North,8,0.0,1.0,66,0.00,,BKN250,0.00,VWS V14.01,2013-07-03 03:30:00,
2013-07-02 22:35:00,69.9,58.0,30.00,North,8,0.0,0.0,66,0.00,,BKN250,0.00,VWS V14.01,2013-07-03 03:35:00,
2013-07-02 22:36:00,69.8,57.9,30.00,North,8,0.0,0.0,66,0.00,,BKN250,0.00,VWS V14.01,2013-07-03 03:36:00,
2013-07-02 22:40:00,69.7,57.8,30.00,North,8,0.0,0.0,66,0.00,,BKN250,0.00,VWS V14.01,2013-07-03 03:40:00,
2013-07-02 22:45:00,69.4,57.6,30.00,North,8,0.0,0.0,66,0.00,,BKN250,0.00,VWS V14.01,2013-07-03 03:45:00,
2013-07-02 22:49:00,69.4,57.6,30.00,North,8,0.0,1.0,66,0.00,,BKN250,0.00,VWS V14.01,2013-07-03 03:49:00,
2013-07-02 22:54:00,69.4,56.7,30.00,North,9,0.0,0.0,64,0.00,,BKN250,0.00,VWS V14.01,2013-07-03 03:54:00,
2013-07-02 22:59:00,69.5,56.8,30.00,North,9,0.0,0.0,64,0.00,,BKN250,0.00,VWS V14.01,2013-07-03 03:59:00,
2013-07-02 23:00:00,69.5,56.4,30.00,North,9,0.0,0.0,63,0.00,,BKN250,0.00,VWS V14.01,2013-07-03 04:00:00,
2013-07-02 23:01:00,69.5,56.4,30.00,North,9,0.0,0.0,63,0.00,,BKN250,0.00,VWS V14.01,2013-07-03 04:01:00,
2013-07-02 23:03:00,69.6,56.5,30.00,North,9,0.0,0.0,63,0.00,,BKN250,0.00,VWS V14.01,2013-07-03 04:03:00,
2013-07-02 23:04:00,69.6,56.0,30.00,North,9,0.0,0.0,62,0.00,,BKN250,0.00,VWS V14.01,2013-07-03 04:04:00,
2013-07-02 23:09:00,69.7,56.1,30.00,North,8,0.0,1.0,62,0.00,,BKN250,0.00,VWS V14.01,2013-07-03 04:09:00,
2013-07-02 23:14:00,69.7,56.6,30.00,North,9,0.0,0.0,63,0.00,,BKN250,0.00,VWS V14.01,2013-07-03 04:14:00,
2013-07-02 23:19:00,69.6,56.0,30.00,North,8,1.0,1.0,62,0.00,,BKN250,0.00,VWS V14.01,2013-07-03 04:19:00,
2013-07-02 23:24:00,68.6,58.4,30.01,ESE,102,0.0,2.0,70,0.00,,BKN250,0.00,VWS V14.01,2013-07-03 04:24:00,
2013-07-02 23:29:00,67.5,58.2,30.01,SW,219,1.0,3.0,72,0.00,,BKN250,0.00,VWS V14.01,2013-07-03 04:29:00,
2013-07-02 23:31:00,67.1,58.2,30.01,SW,219,0.0,1.0,73,0.00,,BKN250,0.00,VWS V14.01,2013-07-03 04:31:00,
2013-07-02 23:32:00,67.0,58.1,30.01,SW,219,0.0,0.0,73,0.00,,BKN250,0.00,VWS V14.01,2013-07-03 04:32:00,
2013-07-02 23:37:00,66.6,58.1,30.01,SW,218,0.0,0.0,74,0.00,,BKN250,0.00,VWS V14.01,2013-07-03 04:37:00,
2013-07-02 23:42:00,66.2,57.7,30.01,SW,218,0.0,1.0,74,0.00,,SCT250,0.00,VWS V14.01,2013-07-03 04:42:00,
2013-07-02 23:45:00,66.1,57.6,30.01,SW,218,0.0,0.0,74,0.00,,SCT250,0.00,VWS V14.01,2013-07-03 04:45:00,
2013-07-02 23:46:00,66.1,57.2,30.01,SW,218,0.0,0.0,73,0.00,,SCT250,0.00,VWS V14.01,2013-07-03 04:46:00,
2013-07-02 23:51:00,65.9,57.8,30.01,SW,218,0.0,1.0,75,0.00,,SCT250,0.00,VWS V14.01,2013-07-03 04:51:00,
2013-07-02 23:54:00,65.7,57.2,30.01,SW,218,0.0,0.0,74,0.00,,SCT250,0.00,VWS V14.01,2013-07-03 04:54:00,
2013-07-02 23:59:00,65.5,57.4,30.01,SW,218,0.0,0.0,75,0.00,,SCT250,0.00,VWS V14.01,2013-07-03 04:59:00,